Home   Weather   Camagüey   Past weeks

Flag for Cuba Past Weather in Camagüey, Cuba — Yesterday and Last 2 Weeks

84 °F

Broken clouds.

Feels Like: 85 °F
Forecast: 71 / 84 °F
Wind: 20 mph from Northeast

Location: Camaguey Aeropuerto

Current Time: Oct 25, 2016 at 3:17:42 PM

Latest Report: Oct 25, 2016 at 2:50 PM

Visibility: 6 mi

Pressure: 29.98 "Hg

Humidity: 48%

Dew Point: 63 °F

Location of CamagüeyLocation

Past Weather in Camagüey — Graph


Camagüey Temperature Yesterday

Maximum temperature yesterday: 81 °F (at 11:50 AM)
Minimum temperature yesterday: 72 °F (at 1:50 AM)
Average temperature yesterday: 75 °F

High & Low Weather Summary for the Past Weeks

High88 °F (Oct 11, 1:50 PM)100% (Oct 15, 5:51 PM)30.09 "Hg (Oct 15, 5:51 PM)
Low37 °F (Oct 15, 5:51 PM)38% (Oct 21, 2:50 PM)29.80 "Hg (Oct 17, 2:51 PM)
Average77 °F79%29.93 "Hg
* Reported Oct 10 1:50 PM — Oct 25 1:50 PM, Camagüey, Weather by CustomWeather, © 2016

Note: Actual official high and low records may vary slightly from our data, if they occured in-between our weather recording intervals... More about our weather records


Camagüey Weather History for the Previous 24 Hours

Scroll right to see more
Time TempWeatherWind HumidityBarometerVisibility
1:50 PM
Tue, Oct 25
84 °FScattered clouds.20 mph51%29.98 "Hg6 mi
12:51 PM82 °FBroken clouds.20 mph58%30.01 "Hg6 mi
11:50 AM82 °FBroken clouds.18 mph58%30.04 "Hg6 mi
10:50 AM82 °FBroken clouds.17 mph58%30.04 "Hg6 mi
9:50 AM81 °FPassing clouds.18 mph62%30.04 "Hg6 mi
8:50 AM77 °FPassing clouds.10 mph69%30.04 "Hg6 mi
7:50 AM72 °FPassing clouds.7 mph83%30.01 "Hg6 mi
6:51 AM72 °FPassing clouds.7 mph83%30.01 "Hg6 mi
5:51 AM72 °FClear.10 mph83%29.98 "Hg6 mi
4:51 AM72 °FClear.6 mph78%30.01 "Hg6 mi
3:52 AM72 °FClear.6 mph83%30.01 "Hg6 mi
2:50 AM73 °FPassing clouds.8 mph74%30.01 "Hg6 mi
1:50 AM75 °FPassing clouds.7 mph69%30.04 "Hg6 mi
12:51 AM73 °FPassing clouds.7 mph78%30.04 "Hg6 mi
11:50 PM
Mon, Oct 24
73 °FPassing clouds.5 mph83%30.04 "Hg6 mi
10:52 PM73 °FPassing clouds.7 mph83%30.07 "Hg6 mi
9:51 PM73 °FPassing clouds.12 mph83%30.07 "Hg6 mi
8:50 PM75 °FPassing clouds.13 mph74%30.04 "Hg6 mi
7:51 PM75 °FPassing clouds.9 mph74%30.04 "Hg6 mi
6:50 PM77 °FPartly cloudy.8 mph69%30.04 "Hg6 mi
5:50 PM77 °FMore clouds than sun.14 mph69%30.01 "Hg6 mi
Weather by CustomWeather, © 2016

See weather overviewHow to use our weather pages